N52LM KFNL-KABQ

Flight info

Callsign N52LM
Flight time 1h 3m
Altitude 43000
Route SKYEE1 DAAYE DATME SNDIA4
Aircraft HDJT/L-SABDGRWY/H

Departure

Time 2026-05-08 03:56
Airport Northern Colorado Regional Airport (KFNL)

Arrival

Time 2026-05-08 05:00
Airport Albuquerque International Sunport (KABQ)
Time Latitude Longitude Altitude Speed Heading
2026-05-08 03:40 40.44939 -105.00798 4999 ft 0 kts 283°
2026-05-08 03:53 40.44933 -105.00824 4999 ft 6 kts 250°
2026-05-08 03:53 40.44946 -105.00869 4999 ft 5 kts 305°
2026-05-08 03:53 40.44944 -105.00919 4999 ft 6 kts 249°
2026-05-08 03:53 40.44897 -105.00969 4999 ft 11 kts 168°
2026-05-08 03:54 40.44797 -105.00922 5000 ft 18 kts 160°
2026-05-08 03:54 40.44678 -105.00867 5000 ft 18 kts 160°
2026-05-08 03:54 40.44554 -105.00810 5000 ft 23 kts 160°
2026-05-08 03:54 40.44374 -105.00727 5000 ft 28 kts 160°
2026-05-08 03:55 40.44203 -105.00648 5000 ft 19 kts 160°
2026-05-08 03:55 40.44085 -105.00599 5001 ft 13 kts 196°
2026-05-08 03:55 40.44047 -105.00690 5001 ft 11 kts 253°
2026-05-08 03:55 40.44066 -105.00735 5001 ft 0 kts 340°
2026-05-08 03:56 40.44250 -105.00821 5000 ft 71 kts 340°
2026-05-08 03:56 40.44976 -105.01153 5026 ft 142 kts 343°
2026-05-08 03:56 40.46010 -105.01653 5397 ft 173 kts 341°
2026-05-08 03:56 40.47229 -105.02231 5888 ft 200 kts 340°
2026-05-08 03:57 40.48635 -105.02801 6398 ft 221 kts 350°
2026-05-08 03:57 40.50165 -105.02632 7218 ft 227 kts 16°
2026-05-08 03:57 40.51528 -105.01497 7964 ft 242 kts 40°
2026-05-08 03:57 40.52644 -104.99842 8888 ft 240 kts 46°
2026-05-08 03:58 40.53675 -104.98074 9724 ft 248 kts 47°
2026-05-08 03:58 40.54494 -104.96044 10530 ft 260 kts 72°
2026-05-08 03:58 40.54548 -104.93627 11340 ft 270 kts 94°
2026-05-08 03:58 40.54276 -104.91174 12264 ft 271 kts 98°
2026-05-08 03:59 40.53628 -104.88841 13111 ft 277 kts 125°
2026-05-08 03:59 40.52246 -104.87137 13838 ft 278 kts 154°
2026-05-08 03:59 40.50414 -104.86456 14484 ft 273 kts 184°
2026-05-08 03:59 40.48584 -104.86897 15147 ft 267 kts 204°
2026-05-08 04:00 40.46747 -104.87408 15829 ft 276 kts 189°
2026-05-08 04:00 40.44803 -104.87481 16511 ft 281 kts 187°
2026-05-08 04:00 40.42872 -104.87747 17216 ft 279 kts 195°
2026-05-08 04:00 40.40941 -104.88173 17923 ft 283 kts 195°
2026-05-08 04:01 40.38968 -104.88487 18609 ft 288 kts 192°
2026-05-08 04:01 40.36955 -104.88727 19245 ft 289 kts 192°
2026-05-08 04:01 40.34948 -104.89000 19876 ft 292 kts 193°
2026-05-08 04:01 40.32970 -104.89510 20501 ft 288 kts 204°
2026-05-08 04:02 40.31077 -104.90385 21146 ft 289 kts 207°
2026-05-08 04:02 40.29178 -104.91316 21806 ft 293 kts 205°
2026-05-08 04:02 40.27238 -104.92098 22452 ft 298 kts 202°
2026-05-08 04:02 40.25222 -104.92825 23089 ft 302 kts 202°
2026-05-08 04:03 40.23196 -104.93608 23682 ft 305 kts 204°
2026-05-08 04:03 40.19096 -104.95242 24805 ft 311 kts 203°
2026-05-08 04:03 40.17013 -104.96051 25344 ft 313 kts 203°
2026-05-08 04:04 40.14907 -104.96873 25889 ft 315 kts 204°
2026-05-08 04:04 40.12825 -104.97688 26444 ft 317 kts 204°
2026-05-08 04:04 40.10704 -104.98518 26968 ft 319 kts 204°
2026-05-08 04:04 40.08566 -104.99354 27477 ft 322 kts 204°
2026-05-08 04:05 40.06406 -105.00197 28120 ft 324 kts 204°
2026-05-08 04:05 40.04238 -105.01042 28605 ft 326 kts 204°
2026-05-08 04:05 40.02053 -105.01894 29086 ft 329 kts 204°
2026-05-08 04:05 39.99852 -105.02752 29550 ft 331 kts 204°
2026-05-08 04:06 39.97666 -105.03603 30000 ft 333 kts 204°
2026-05-08 04:06 39.95437 -105.04470 30382 ft 335 kts 204°
2026-05-08 04:06 39.93198 -105.05339 30783 ft 336 kts 204°
2026-05-08 04:06 39.90958 -105.06208 31219 ft 334 kts 205°
2026-05-08 04:07 39.88736 -105.07070 31653 ft 333 kts 205°
2026-05-08 04:07 39.86509 -105.07936 32067 ft 333 kts 205°
2026-05-08 04:07 39.84285 -105.08798 32473 ft 333 kts 205°
2026-05-08 04:07 39.82066 -105.09658 32884 ft 332 kts 205°
2026-05-08 04:08 39.79851 -105.10515 33268 ft 332 kts 205°
2026-05-08 04:08 39.77629 -105.11375 33649 ft 332 kts 206°
2026-05-08 04:08 39.75419 -105.12230 34031 ft 332 kts 206°
2026-05-08 04:08 39.73203 -105.13086 34417 ft 331 kts 206°
2026-05-08 04:09 39.70996 -105.13938 34790 ft 331 kts 206°
2026-05-08 04:09 39.68791 -105.14789 35157 ft 330 kts 206°
2026-05-08 04:09 39.66584 -105.15641 35515 ft 330 kts 206°
2026-05-08 04:09 39.64411 -105.16478 35866 ft 330 kts 206°
2026-05-08 04:10 39.62208 -105.17328 36215 ft 330 kts 206°
2026-05-08 04:10 39.59999 -105.18177 36570 ft 330 kts 206°
2026-05-08 04:10 39.58544 -105.18736 36795 ft 330 kts 206°
2026-05-08 04:10 39.55599 -105.19869 37265 ft 329 kts 206°
2026-05-08 04:11 39.53406 -105.20707 37628 ft 328 kts 206°
2026-05-08 04:11 39.51216 -105.21555 37901 ft 329 kts 207°
2026-05-08 04:11 39.49022 -105.22404 38253 ft 329 kts 206°
2026-05-08 04:11 39.46821 -105.23233 38611 ft 329 kts 207°
2026-05-08 04:12 39.44644 -105.24061 38991 ft 323 kts 207°
2026-05-08 04:12 39.42499 -105.24887 39276 ft 322 kts 206°
2026-05-08 04:12 39.40357 -105.25713 39553 ft 321 kts 206°
2026-05-08 04:12 39.38207 -105.26537 39769 ft 322 kts 206°
2026-05-08 04:13 39.36055 -105.27358 40016 ft 323 kts 206°
2026-05-08 04:13 39.33925 -105.28170 40252 ft 323 kts 205°
2026-05-08 04:13 39.31770 -105.28992 40501 ft 323 kts 205°
2026-05-08 04:13 39.29606 -105.29813 40653 ft 324 kts 206°
2026-05-08 04:14 39.27446 -105.30633 40859 ft 324 kts 206°
2026-05-08 04:14 39.25283 -105.31472 41077 ft 324 kts 206°
2026-05-08 04:14 39.23109 -105.32299 41283 ft 324 kts 205°
2026-05-08 04:14 39.20955 -105.33110 41588 ft 322 kts 205°
2026-05-08 04:15 39.18811 -105.33924 41832 ft 321 kts 206°
2026-05-08 04:15 39.16667 -105.34744 42064 ft 321 kts 205°
2026-05-08 04:15 39.14527 -105.35556 42282 ft 321 kts 205°
2026-05-08 04:15 39.12405 -105.36359 42496 ft 321 kts 205°
2026-05-08 04:16 39.10264 -105.37170 42726 ft 320 kts 205°
2026-05-08 04:16 39.08123 -105.37982 42914 ft 321 kts 205°
2026-05-08 04:16 39.03770 -105.39636 42980 ft 332 kts 205°
2026-05-08 04:17 38.99264 -105.41337 42982 ft 342 kts 204°
2026-05-08 04:17 38.94625 -105.43090 42997 ft 352 kts 204°
2026-05-08 04:18 38.89868 -105.44882 43029 ft 360 kts 204°
2026-05-08 04:18 38.85033 -105.46703 43035 ft 368 kts 204°
2026-05-08 04:19 38.80076 -105.48566 43028 ft 374 kts 204°
2026-05-08 04:19 38.75054 -105.50451 43022 ft 377 kts 203°
2026-05-08 04:20 38.69989 -105.52349 43020 ft 380 kts 203°
2026-05-08 04:20 38.64886 -105.54261 43022 ft 383 kts 202°
2026-05-08 04:21 38.60615 -105.55856 43022 ft 385 kts 202°
2026-05-08 04:21 38.54629 -105.58091 43023 ft 386 kts 202°
2026-05-08 04:22 38.50303 -105.59702 43016 ft 386 kts 202°
2026-05-08 04:22 38.45180 -105.61610 43008 ft 385 kts 202°
2026-05-08 04:23 38.40029 -105.63523 43018 ft 384 kts 202°
2026-05-08 04:23 38.34893 -105.65430 43026 ft 384 kts 202°
2026-05-08 04:24 38.29750 -105.67337 43030 ft 385 kts 202°
2026-05-08 04:24 38.24613 -105.69236 43034 ft 384 kts 202°
2026-05-08 04:25 38.19488 -105.71131 43043 ft 384 kts 202°
2026-05-08 04:25 38.14346 -105.73033 43045 ft 385 kts 202°
2026-05-08 04:26 38.09196 -105.74919 43040 ft 386 kts 202°
2026-05-08 04:26 38.04040 -105.76823 43042 ft 386 kts 202°
2026-05-08 04:27 37.98808 -105.78483 43045 ft 390 kts 197°
2026-05-08 04:27 37.93483 -105.79836 43045 ft 390 kts 198°
2026-05-08 04:28 37.88187 -105.81183 43045 ft 391 kts 198°
2026-05-08 04:28 37.82816 -105.82544 43043 ft 391 kts 198°
2026-05-08 04:29 37.77509 -105.83888 43048 ft 391 kts 197°
2026-05-08 04:29 37.72166 -105.85239 43072 ft 391 kts 197°
2026-05-08 04:30 37.66830 -105.86586 43097 ft 391 kts 197°
2026-05-08 04:30 37.61479 -105.87936 43121 ft 392 kts 197°
2026-05-08 04:31 37.56137 -105.89280 43136 ft 391 kts 197°
2026-05-08 04:31 37.50802 -105.90621 43159 ft 391 kts 197°
2026-05-08 04:32 37.45471 -105.91959 43160 ft 391 kts 197°
2026-05-08 04:32 37.40169 -105.93288 43159 ft 391 kts 197°
2026-05-08 04:33 37.37507 -105.93954 43034 ft 390 kts 197°
2026-05-08 04:33 37.34836 -105.94623 43034 ft 390 kts 197°
2026-05-08 04:33 37.29506 -105.95955 43034 ft 390 kts 197°
2026-05-08 04:34 37.24174 -105.97286 43031 ft 390 kts 197°
2026-05-08 04:34 37.18839 -105.98615 43028 ft 390 kts 197°
2026-05-08 04:35 37.13512 -105.99940 43026 ft 390 kts 197°
2026-05-08 04:35 37.08173 -106.01267 43027 ft 390 kts 196°
2026-05-08 04:36 37.02840 -106.02590 43028 ft 390 kts 196°
2026-05-08 04:36 36.97504 -106.03913 43022 ft 391 kts 196°
2026-05-08 04:37 36.92204 -106.05224 43025 ft 391 kts 196°
2026-05-08 04:37 36.86865 -106.06543 43023 ft 391 kts 196°
2026-05-08 04:38 36.81527 -106.07859 43031 ft 390 kts 195°
2026-05-08 04:38 36.76167 -106.09183 42512 ft 399 kts 195°
2026-05-08 04:39 36.73423 -106.09859 41706 ft 403 kts 195°
2026-05-08 04:39 36.70665 -106.10534 40938 ft 406 kts 195°
2026-05-08 04:39 36.67878 -106.11219 40188 ft 410 kts 195°
2026-05-08 04:39 36.65124 -106.12135 39477 ft 410 kts 204°
2026-05-08 04:40 36.62465 -106.13352 38784 ft 414 kts 204°
2026-05-08 04:40 36.59730 -106.14584 37947 ft 419 kts 203°
2026-05-08 04:40 36.56972 -106.15798 37141 ft 422 kts 203°
2026-05-08 04:40 36.54196 -106.17027 36546 ft 425 kts 203°
2026-05-08 04:41 36.51395 -106.18284 35997 ft 429 kts 203°
2026-05-08 04:41 36.48572 -106.19547 35403 ft 433 kts 203°
2026-05-08 04:41 36.45729 -106.20808 34835 ft 436 kts 203°
2026-05-08 04:41 36.42858 -106.22081 34258 ft 439 kts 204°
2026-05-08 04:42 36.39972 -106.23365 33630 ft 442 kts 204°
2026-05-08 04:42 36.37075 -106.24653 33040 ft 442 kts 203°
2026-05-08 04:42 36.34175 -106.25938 32447 ft 443 kts 202°
2026-05-08 04:42 36.31262 -106.27223 31869 ft 444 kts 202°
2026-05-08 04:43 36.28343 -106.28506 31274 ft 445 kts 202°
2026-05-08 04:43 36.25463 -106.29775 30693 ft 445 kts 202°
2026-05-08 04:43 36.22542 -106.31063 30113 ft 446 kts 202°
2026-05-08 04:43 36.19623 -106.32347 29491 ft 443 kts 202°
2026-05-08 04:44 36.16739 -106.33613 28927 ft 437 kts 202°
2026-05-08 04:44 36.13892 -106.34863 28365 ft 432 kts 202°
2026-05-08 04:44 36.11063 -106.36106 27824 ft 429 kts 202°
2026-05-08 04:44 36.08260 -106.37321 27271 ft 425 kts 201°
2026-05-08 04:45 36.05481 -106.38509 26726 ft 420 kts 201°
2026-05-08 04:45 36.02732 -106.39691 26186 ft 416 kts 201°
2026-05-08 04:45 36.00018 -106.40868 25651 ft 411 kts 201°
2026-05-08 04:45 35.97323 -106.42032 25115 ft 407 kts 201°
2026-05-08 04:46 35.94664 -106.43173 24586 ft 402 kts 201°
2026-05-08 04:46 35.92031 -106.44304 24058 ft 398 kts 202°
2026-05-08 04:46 35.89419 -106.45425 23516 ft 393 kts 201°
2026-05-08 04:46 35.86838 -106.46476 22957 ft 392 kts 200°
2026-05-08 04:47 35.84255 -106.47502 22289 ft 387 kts 200°
2026-05-08 04:47 35.81712 -106.48539 21777 ft 383 kts 201°
2026-05-08 04:47 35.79228 -106.49568 21293 ft 380 kts 201°
2026-05-08 04:47 35.76722 -106.50593 20793 ft 377 kts 201°
2026-05-08 04:48 35.74233 -106.51601 20297 ft 374 kts 200°
2026-05-08 04:48 35.71774 -106.52600 19807 ft 371 kts 201°
2026-05-08 04:48 35.69330 -106.53599 19316 ft 368 kts 201°
2026-05-08 04:48 35.66903 -106.54587 18823 ft 365 kts 201°
2026-05-08 04:49 35.64499 -106.55564 18341 ft 362 kts 201°
2026-05-08 04:49 35.62120 -106.56530 17746 ft 359 kts 201°
2026-05-08 04:49 35.59764 -106.57490 17243 ft 355 kts 201°
2026-05-08 04:49 35.57500 -106.58644 16776 ft 351 kts 207°
2026-05-08 04:50 35.55279 -106.59864 16310 ft 345 kts 206°
2026-05-08 04:50 35.53136 -106.61013 15865 ft 328 kts 206°
2026-05-08 04:50 35.51084 -106.62108 15437 ft 317 kts 206°
2026-05-08 04:50 35.49066 -106.63198 15028 ft 316 kts 207°
2026-05-08 04:51 35.47057 -106.64284 14609 ft 314 kts 206°
2026-05-08 04:51 35.45063 -106.65358 14195 ft 312 kts 206°
2026-05-08 04:51 35.43108 -106.66410 13786 ft 310 kts 206°
2026-05-08 04:51 35.41139 -106.67471 13355 ft 308 kts 206°
2026-05-08 04:52 35.39179 -106.68526 12941 ft 306 kts 206°
2026-05-08 04:52 35.37233 -106.69571 12539 ft 305 kts 206°
2026-05-08 04:52 35.35294 -106.70614 12134 ft 304 kts 206°
2026-05-08 04:52 35.33360 -106.71654 11734 ft 303 kts 206°
2026-05-08 04:53 35.31436 -106.72686 11339 ft 300 kts 206°
2026-05-08 04:53 35.29524 -106.73712 10944 ft 299 kts 206°
2026-05-08 04:53 35.27652 -106.74814 10794 ft 297 kts 209°
2026-05-08 04:53 35.25828 -106.75947 10373 ft 295 kts 208°
2026-05-08 04:54 35.24025 -106.77044 10111 ft 276 kts 208°
2026-05-08 04:54 35.22373 -106.78053 9873 ft 262 kts 208°
2026-05-08 04:54 35.20776 -106.79037 9829 ft 252 kts 209°
2026-05-08 04:54 35.19231 -106.79987 9397 ft 247 kts 209°
2026-05-08 04:55 35.17695 -106.80930 9375 ft 247 kts 209°
2026-05-08 04:55 35.16110 -106.81740 9152 ft 248 kts 196°
2026-05-08 04:55 35.14388 -106.81958 8938 ft 250 kts 179°
2026-05-08 04:55 35.12678 -106.81562 8738 ft 251 kts 163°
2026-05-08 04:56 35.11040 -106.80872 8536 ft 245 kts 162°
2026-05-08 04:56 35.09442 -106.80222 8338 ft 238 kts 163°
2026-05-08 04:56 35.07923 -106.79529 8152 ft 231 kts 153°
2026-05-08 04:56 35.06655 -106.78348 7942 ft 229 kts 134°
2026-05-08 04:57 35.05754 -106.76765 7673 ft 224 kts 119°
2026-05-08 04:57 35.05033 -106.75146 7413 ft 208 kts 120°
2026-05-08 04:57 35.04518 -106.73590 7153 ft 196 kts 102°
2026-05-08 04:57 35.04478 -106.71966 6901 ft 187 kts 88°
2026-05-08 04:58 35.04512 -106.70445 6741 ft 167 kts 91°
2026-05-08 04:58 35.04494 -106.69109 6570 ft 150 kts 92°
2026-05-08 04:58 35.04469 -106.67888 6408 ft 140 kts 92°
2026-05-08 04:58 35.04457 -106.66741 6251 ft 132 kts 90°
2026-05-08 04:59 35.04466 -106.65649 6047 ft 127 kts 90°
2026-05-08 04:59 35.04449 -106.64591 5835 ft 123 kts 91°
2026-05-08 04:59 35.04445 -106.63561 5644 ft 122 kts 90°
2026-05-08 04:59 35.04437 -106.62516 5448 ft 123 kts 91°
2026-05-08 05:00 35.04432 -106.61485 5321 ft 117 kts 91°
2026-05-08 05:00 35.04426 -106.60582 5317 ft 94 kts 90°
2026-05-08 05:00 35.04421 -106.59928 5315 ft 48 kts 95°
2026-05-08 05:00 35.04345 -106.59677 5314 ft 21 kts 121°
2026-05-08 05:01 35.04267 -106.59647 5315 ft 13 kts 240°
2026-05-08 05:01 35.04256 -106.59757 5315 ft 13 kts 271°
2026-05-08 05:01 35.04257 -106.59867 5315 ft 13 kts 270°
2026-05-08 05:01 35.04258 -106.59991 5316 ft 18 kts 269°
2026-05-08 05:02 35.04259 -106.60183 5316 ft 26 kts 271°
2026-05-08 05:02 35.04260 -106.60400 5316 ft 24 kts 267°
2026-05-08 05:02 35.04241 -106.60594 5317 ft 23 kts 271°
2026-05-08 05:02 35.04242 -106.60825 5316 ft 31 kts 270°
2026-05-08 05:03 35.04243 -106.61084 5315 ft 30 kts 270°
2026-05-08 05:03 35.04247 -106.61247 5315 ft 26 kts 276°
2026-05-08 05:03 35.04196 -106.61381 5315 ft 17 kts 183°
2026-05-08 05:03 35.04064 -106.61384 5315 ft 20 kts 180°
2026-05-08 05:04 35.03927 -106.61384 5315 ft 20 kts 180°
2026-05-08 05:04 35.03799 -106.61421 5316 ft 18 kts 197°
2026-05-08 05:04 35.03691 -106.61502 5311 ft 20 kts 226°
2026-05-08 05:04 35.03583 -106.61633 5311 ft 22 kts 225°
2026-05-08 05:05 35.03474 -106.61764 5311 ft 22 kts 224°
2026-05-08 05:05 35.03450 -106.61871 5310 ft 14 kts 319°
2026-05-08 05:05 35.03528 -106.61932 5313 ft 12 kts 334°
2026-05-08 05:05 35.03591 -106.61914 5316 ft 8 kts 43°
2026-05-08 05:06 35.03596 -106.61909 5316 ft 0 kts 43°